Weather History for Wheeling, WV

Change the Weather History Date:

Sunday, February 10, 2013

  Actual Average Record
Temperature  
Mean Temperature 36 °F 31 °F  
Max Temperature 51 °F 39 °F 54 °F (2002)
Min Temperature 21 °F 23 °F 5 °F (2008)
Degree Days  
Heating Degree Days 29 34  
Month to date heating degree days 389 346  
Since 1 July heating degree days 3420 3588  
Cooling Degree Days 0    
Month to date cooling degree days 0  
Year to date cooling degree days 0  
Moisture  
Dew Point 19 °F    
Average Humidity 49    
Maximum Humidity 68    
Minimum Humidity 29    
Precipitation  
Precipitation T in 0.08 in 0.60 in (1990)
Month to date precipitation 0.41 0.77  
Sea Level Pressure  
Sea Level Pressure 30.17 in    
Wind  
Wind Speed 8 mph (ESE)    
Max Wind Speed 25 mph    
Max Gust Speed 35 mph    
Visibility 10 miles    
Events Rain    
T = Trace of Precipitation, MM = Missing Value Source: NWS Daily Summary

Daily Weather History Graph

Daily Weather History Graph

Search for Another Location

Airport:

Trip Planner

Search our weather history database for the weather conditions in past years. The results will help you decide how hot, cold, wet, or windy it might be!

Date:

Astronomy

Feb. 10, 2013 Rise Set
Actual Time 7:21 AM EST 5:52 PM EST
Civil Twilight 6:53 AM EST 6:20 PM EST
Nautical Twilight 6:21 AM EST 6:52 PM EST
Astronomical Twilight 5:49 AM EST 7:24 PM EST
Moon 7:10 AM EST (2/10) 6:41 PM EST (2/10)
Length of Visible Light 11h 27m
Length of Day
10h 31m
New Moon, 0% of the Moon is Illuminated
Feb 10
New Moon
Feb 17
First Quarter
Feb 25
Full
Mar 4
Last Quarter
Mar 11
New

Hourly Weather History & Observations

Time (EST) Temp. Windchill Dew Point Humidity Pressure Visibility Wind Dir Wind Speed Gust Speed Precip Events Conditions
12:53 AM 24.1 °F 14.4 °F 14.0 °F 65% 30.36 in 10.0 mi East 9.2 mph - N/A   Clear
1:53 AM 24.1 °F 14.4 °F 14.0 °F 65% 30.34 in 10.0 mi East 9.2 mph - N/A   Clear
2:53 AM 24.1 °F 16.0 °F 14.0 °F 65% 30.34 in 10.0 mi ESE 6.9 mph - N/A   Clear
3:53 AM 21.9 °F 13.4 °F 12.9 °F 68% 30.31 in 10.0 mi East 6.9 mph - N/A   Clear
4:53 AM 23.0 °F 17.0 °F 14.0 °F 68% 30.31 in 10.0 mi East 4.6 mph - N/A   Clear
5:53 AM 23.0 °F 14.7 °F 14.0 °F 68% 30.29 in 10.0 mi East 6.9 mph - N/A   Clear
6:53 AM 24.1 °F 17.0 °F 14.0 °F 65% 30.30 in 10.0 mi East 5.8 mph - N/A   Clear
7:53 AM 25.0 °F 17.1 °F 14.0 °F 63% 30.30 in 10.0 mi ESE 6.9 mph - N/A   Clear
8:53 AM 27.0 °F 21.6 °F 16.0 °F 63% 30.29 in 10.0 mi East 4.6 mph - N/A   Clear
9:53 AM 30.9 °F 24.3 °F 14.0 °F 50% 30.27 in 10.0 mi SE 6.9 mph - N/A   Clear
10:53 AM 39.9 °F 35.8 °F 16.0 °F 38% 30.25 in 10.0 mi SSE 5.8 mph - N/A   Clear
11:53 AM 44.1 °F 40.8 °F 15.1 °F 31% 30.22 in 10.0 mi SSE 5.8 mph - N/A   Overcast
12:53 PM 42.1 °F - 19.9 °F 41% 30.19 in 10.0 mi Calm Calm - N/A   Mostly Cloudy
1:53 PM 48.9 °F - 18.0 °F 29% 30.13 in 10.0 mi SSE 8.1 mph - N/A   Overcast
2:53 PM 50.0 °F - 19.0 °F 29% 30.11 in 10.0 mi SE 8.1 mph - N/A   Overcast
3:53 PM 48.9 °F - 21.0 °F 33% 30.08 in 10.0 mi East 9.2 mph - N/A   Overcast
4:53 PM 48.0 °F - 21.0 °F 34% 30.06 in 10.0 mi East 9.2 mph - N/A   Overcast
5:53 PM 46.9 °F - 21.0 °F 36% 30.06 in 10.0 mi East 5.8 mph - N/A   Overcast
6:53 PM 44.1 °F 40.1 °F 23.0 °F 43% 30.06 in 10.0 mi ESE 6.9 mph - N/A   Scattered Clouds
7:53 PM 44.1 °F 38.6 °F 24.1 °F 45% 30.04 in 10.0 mi ESE 10.4 mph - N/A   Scattered Clouds
8:53 PM 45.0 °F 38.2 °F 23.0 °F 42% 29.99 in 10.0 mi SE 15.0 mph - N/A   Overcast
9:53 PM 46.9 °F - 21.9 °F 37% 29.97 in 10.0 mi South 16.1 mph 24.2 mph 0.00 in   Overcast
10:53 PM 46.0 °F 38.3 °F 27.0 °F 47% 29.95 in 10.0 mi South 20.7 mph 28.8 mph 0.00 in   Overcast
11:53 PM 42.1 °F 34.9 °F 36.0 °F 79% 29.94 in 9.0 mi SSE 13.8 mph 29.9 mph 0.00 in Rain Light Rain